When you browse on this site, cookies collect data to enhance your experience and personalize the content and advertising you see.
Visit our Privacy Policy to learn more. By continuing to use the site, you agree to this use of cookies and data.
  • In Hungary
  • List of Countries
  • For 7 days
  • Water Temperature
  • Weather Map
  • News
  • Weather Widgets
  • user-avatar
    Login

    Hourly Weather Boaco

    Today, 13 November, Wednesday

    Time Temperature Precipitation Wind Pressure Humidity
    00:00 +21°C° 0 mm 1 mps 705 mmHg 97%
    01:00 +21°C° 0 mm 1 mps 705 mmHg 97%
    02:00 +21°C° 0 mm 1 mps 705 mmHg 97%
    03:00 +21°C° 0 mm 1 mps 705 mmHg 98%
    04:00 +20°C° 0 mm 1 mps 705 mmHg 98%
    05:00 +20°C° 0 mm 1 mps 705 mmHg 98%
    06:00 +20°C° 0 mm 1 mps 706 mmHg 98%
    07:00 +21°C° 0 mm 2 mps 706 mmHg 92%
    08:00 +24°C° 0 mm 2 mps 707 mmHg 87%
    09:00 +25°C° 0 mm 3 mps 708 mmHg 81%
    10:00 +26°C° 0 mm 3 mps 707 mmHg 78%
    11:00 +27°C° 0 mm 3 mps 707 mmHg 75%
    12:00 +28°C° 0 mm 3 mps 706 mmHg 72%
    13:00 +28°C° 0.1 mm 3 mps 706 mmHg 73%
    14:00 +27°C° 0.1 mm 3 mps 705 mmHg 74%
    15:00 +27°C° 0.1 mm 3 mps 705 mmHg 75%
    16:00 +26°C° 0.1 mm 2 mps 705 mmHg 80%
    17:00 +24°C° 0.1 mm 2 mps 705 mmHg 85%
    18:00 +23°C° 0.1 mm 1 mps 705 mmHg 90%
    19:00 +22°C° 0.1 mm 1 mps 706 mmHg 91%
    20:00 +22°C° 0.1 mm 1 mps 706 mmHg 93%
    21:00 +21°C° 0.1 mm 1 mps 707 mmHg 94%
    22:00 +21°C° 0 mm 1 mps 707 mmHg 94%
    23:00 +21°C° 0 mm 1 mps 706 mmHg 95%

    Tomorrow, 14 November, Thursday

    Time Temperature Precipitation Wind Pressure Humidity
    00:00 +21°C° 0 mm 1 mps 706 mmHg 95%
    01:00 +20°C° 0 mm 1 mps 706 mmHg 96%
    02:00 +20°C° 0 mm 1 mps 706 mmHg 96%
    03:00 +20°C° 0 mm 1 mps 706 mmHg 96%
    04:00 +20°C° 0 mm 1 mps 706 mmHg 96%
    05:00 +20°C° 0 mm 1 mps 706 mmHg 96%
    06:00 +20°C° 0 mm 1 mps 706 mmHg 96%
    07:00 +22°C° 0 mm 1 mps 707 mmHg 91%
    08:00 +24°C° 0 mm 1 mps 708 mmHg 86%
    09:00 +26°C° 0 mm 2 mps 709 mmHg 80%
    10:00 +26°C° 0 mm 2 mps 708 mmHg 77%
    11:00 +27°C° 0 mm 2 mps 708 mmHg 73%
    12:00 +28°C° 0 mm 3 mps 707 mmHg 70%
    13:00 +28°C° 0.1 mm 3 mps 706 mmHg 71%
    14:00 +28°C° 0.1 mm 2 mps 706 mmHg 73%
    15:00 +27°C° 0.1 mm 2 mps 705 mmHg 74%
    16:00 +26°C° 0.3 mm 2 mps 705 mmHg 79%
    17:00 +24°C° 0.3 mm 1 mps 706 mmHg 84%
    18:00 +23°C° 0.3 mm 1 mps 706 mmHg 89%
    19:00 +23°C° 0.3 mm 1 mps 706 mmHg 91%
    20:00 +22°C° 0.3 mm 1 mps 707 mmHg 93%
    21:00 +22°C° 0.3 mm 1 mps 707 mmHg 94%
    22:00 +22°C° 0.1 mm 1 mps 707 mmHg 95%
    23:00 +21°C° 0.1 mm 1 mps 707 mmHg 95%

    Day after tomorrow, 15 November, Friday

    Time Temperature Precipitation Wind Pressure Humidity
    00:00 +21°C° 0.1 mm 1 mps 707 mmHg 96%
    01:00 +21°C° 0 mm 1 mps 706 mmHg 96%
    02:00 +21°C° 0 mm 1 mps 706 mmHg 96%
    03:00 +21°C° 0 mm 1 mps 706 mmHg 96%
    04:00 +21°C° 0 mm 1 mps 706 mmHg 96%
    05:00 +21°C° 0 mm 1 mps 707 mmHg 96%
    06:00 +21°C° 0 mm 1 mps 707 mmHg 96%
    07:00 +21°C° 0 mm 2 mps 707 mmHg 91%
    08:00 +24°C° 0 mm 2 mps 708 mmHg 86%
    09:00 +26°C° 0 mm 3 mps 708 mmHg 81%
    10:00 +26°C° 0.3 mm 3 mps 708 mmHg 79%
    11:00 +27°C° 0.3 mm 3 mps 707 mmHg 77%
    12:00 +28°C° 0.3 mm 3 mps 706 mmHg 75%
    13:00 +27°C° 0.8 mm 3 mps 706 mmHg 78%
    14:00 +27°C° 0.8 mm 3 mps 705 mmHg 80%
    15:00 +27°C° 0.8 mm 3 mps 705 mmHg 82%
    16:00 +25°C° 0.9 mm 3 mps 705 mmHg 86%
    17:00 +24°C° 0.9 mm 2 mps 705 mmHg 89%
    18:00 +23°C° 0.9 mm 2 mps 706 mmHg 93%
    19:00 +21°C° 0.1 mm 2 mps 706 mmHg 94%
    20:00 +21°C° 0.1 mm 2 mps 706 mmHg 94%
    21:00 +21°C° 0.1 mm 2 mps 707 mmHg 95%
    22:00 +21°C° 0 mm 2 mps 707 mmHg 95%
    23:00 +20°C° 0 mm 2 mps 706 mmHg 96%

    16 November, Saturday

    Time Temperature Precipitation Wind Pressure Humidity
    00:00 +20°C° 0 mm 2 mps 706 mmHg 96%
    01:00 +21°C° 0 mm 1 mps 706 mmHg 96%
    02:00 +21°C° 0 mm 1 mps 705 mmHg 97%
    03:00 +21°C° 0 mm 1 mps 705 mmHg 97%
    04:00 +20°C° 0 mm 1 mps 705 mmHg 97%
    05:00 +20°C° 0 mm 1 mps 705 mmHg 97%
    06:00 +20°C° 0 mm 1 mps 706 mmHg 98%
    07:00 +22°C° 0 mm 1 mps 706 mmHg 93%
    08:00 +24°C° 0 mm 2 mps 707 mmHg 88%
    09:00 +25°C° 0 mm 2 mps 707 mmHg 84%
    10:00 +26°C° 0 mm 3 mps 707 mmHg 80%
    11:00 +27°C° 0 mm 3 mps 706 mmHg 76%
    12:00 +28°C° 0 mm 4 mps 705 mmHg 72%
    13:00 +28°C° 0.2 mm 4 mps 705 mmHg 74%
    14:00 +28°C° 0.2 mm 4 mps 704 mmHg 76%
    15:00 +27°C° 0.2 mm 4 mps 704 mmHg 78%
    16:00 +26°C° 0.2 mm 3 mps 704 mmHg 82%
    17:00 +25°C° 0.2 mm 2 mps 704 mmHg 87%
    18:00 +23°C° 0.2 mm 2 mps 704 mmHg 91%
    19:00 +23°C° 0.1 mm 2 mps 705 mmHg 92%
    20:00 +21°C° 0.1 mm 2 mps 705 mmHg 93%
    21:00 +21°C° 0.1 mm 2 mps 706 mmHg 94%
    22:00 +20°C° 0 mm 2 mps 705 mmHg 95%
    23:00 +21°C° 0 mm 1 mps 705 mmHg 96%

    17 November, Sunday

    Time Temperature Precipitation Wind Pressure Humidity
    00:00 +21°C° 0 mm 1 mps 705 mmHg 97%
    01:00 +20°C° 0 mm 1 mps 705 mmHg 97%
    02:00 +20°C° 0 mm 1 mps 704 mmHg 97%
    03:00 +20°C° 0 mm 1 mps 704 mmHg 97%
    04:00 +20°C° 0 mm 1 mps 704 mmHg 97%
    05:00 +20°C° 0 mm 1 mps 704 mmHg 96%
    06:00 +20°C° 0 mm 1 mps 705 mmHg 96%
    07:00 +21°C° 0 mm 2 mps 705 mmHg 91%
    08:00 +23°C° 0 mm 2 mps 706 mmHg 86%
    09:00 +25°C° 0 mm 3 mps 706 mmHg 81%
    10:00 +26°C° 0 mm 3 mps 706 mmHg 78%
    11:00 +27°C° 0 mm 3 mps 706 mmHg 75%
    12:00 +28°C° 0 mm 4 mps 705 mmHg 71%
    13:00 +27°C° 0 mm 4 mps 704 mmHg 73%
    14:00 +27°C° 0 mm 4 mps 704 mmHg 74%
    15:00 +27°C° 0 mm 3 mps 703 mmHg 76%
    16:00 +26°C° 0.5 mm 3 mps 704 mmHg 80%
    17:00 +24°C° 0.5 mm 2 mps 704 mmHg 85%
    18:00 +23°C° 0.5 mm 2 mps 704 mmHg 89%
    19:00 +21°C° 0 mm 2 mps 704 mmHg 90%
    20:00 +21°C° 0 mm 2 mps 705 mmHg 91%
    21:00 +20°C° 0 mm 2 mps 705 mmHg 92%
    22:00 +20°C° 0 mm 2 mps 705 mmHg 92%
    23:00 +19°C° 0 mm 2 mps 705 mmHg 92%

    18 November, Monday

    Time Temperature Precipitation Wind Pressure Humidity
    00:00 +20°C° 0 mm 1 mps 705 mmHg 92%
    01:00 +19°C° 0 mm 1 mps 704 mmHg 93%
    02:00 +19°C° 0 mm 1 mps 704 mmHg 93%
    03:00 +18°C° 0 mm 1 mps 704 mmHg 94%
    04:00 +18°C° 0 mm 1 mps 704 mmHg 94%
    05:00 +18°C° 0 mm 1 mps 705 mmHg 95%
    06:00 +18°C° 0 mm 1 mps 705 mmHg 95%
    07:00 +20°C° 0 mm 1 mps 706 mmHg 90%
    08:00 +22°C° 0 mm 1 mps 706 mmHg 85%
    09:00 +24°C° 0 mm 2 mps 707 mmHg 80%
    10:00 +25°C° 0 mm 2 mps 706 mmHg 77%
    11:00 +26°C° 0 mm 2 mps 706 mmHg 74%
    12:00 +27°C° 0 mm 2 mps 705 mmHg 71%
    13:00 +27°C° 0.1 mm 2 mps 705 mmHg 73%
    14:00 +26°C° 0.1 mm 3 mps 704 mmHg 75%
    15:00 +26°C° 0.1 mm 3 mps 703 mmHg 77%
    16:00 +25°C° 0.1 mm 2 mps 704 mmHg 81%
    17:00 +23°C° 0.1 mm 1 mps 704 mmHg 85%
    18:00 +22°C° 0.1 mm 1 mps 704 mmHg 89%
    19:00 +21°C° 0 mm 1 mps 705 mmHg 90%
    20:00 +21°C° 0 mm 1 mps 705 mmHg 90%
    21:00 +21°C° 0 mm 1 mps 706 mmHg 90%
    22:00 +20°C° 0 mm 1 mps 706 mmHg 91%
    23:00 +20°C° 0 mm 1 mps 706 mmHg 93%
    Show more